Flag for U.S.A. Weather past 2 weeks in Rancho Cucamonga, California, U.S.A.

58 °F

Partly sunny.

Feels Like: 55 °F
Forecast: 42 / 58 °F
Wind: 15 mph from Southwest

Location: Ontario International Airport

Current Time: Nov 25, 2015 at 3:26:41 PM

Latest Report: Nov 25, 2015 at 2:53 PM

Visibility: 10 mi

Pressure: 29.85 "Hg

Humidity: 44%

Dew point: 36 °F

Location of Rancho CucamongaLocation

Historic Weather in Rancho Cucamonga — Graph


Rancho Cucamonga temperature yesterday

Maximum temperature yesterday: 71 °F (at 11:53 AM)
Minimum temperature yesterday: 50 °F (at 6:53 AM)
Average temperature yesterday: 58 °F

Past Weeks' High & Low Weather Summary

High87 °F (Nov 21, 12:53 PM)93% (Nov 25, 2:53 AM)30.30 "Hg (Nov 25, 2:53 AM)
Low41 °F (Nov 12, 4:53 AM)5% (Nov 12, 1:53 PM)29.82 "Hg (Nov 25, 2:53 AM)
Average61 °F34%29.97 "Hg
* Reported Nov 10 1:53 PM — Nov 25 1:53 PM, Rancho Cucamonga, Weather by CustomWeather, © 2015

Note: Actual official high and low records may vary slightly from our data, if they occured in-between our weather recording intervals... More about our weather records


Rancho Cucamonga weather history for previous 24 hours

Time TempWeatherWind HumidityBarometerVisibility
1:53 PM
Wed, Nov 25
59 °FPartly sunny.14 mph44%29.85 "Hg10 mi
12:53 PM58 °FPartly sunny.12 mph43%29.85 "Hg10 mi
11:53 AM59 °FScattered clouds.13 mph39%29.87 "Hg10 mi
10:53 AM57 °FScattered clouds.9 mph53%29.89 "Hg10 mi
9:53 AM55 °FBroken clouds.8 mph59%29.91 "Hg10 mi
8:53 AM53 °FPartly sunny.7 mph64%29.90 "Hg10 mi
7:53 AM52 °FPartly sunny.6 mph66%29.89 "Hg10 mi
6:53 AM50 °FPartly sunny.No wind80%29.87 "Hg10 mi
5:53 AM51 °FPassing clouds.3 mph74%29.84 "Hg10 mi
4:53 AM52 °FPartly cloudy.8 mph75%29.84 "Hg10 mi
3:53 AM54 °FMostly cloudy.10 mph90%29.82 "Hg8 mi
2:53 AM53 °FFog.5 mph93%29.82 "Hg6 mi
1:53 AM54 °FLight rain. Fog.7 mph90%29.82 "Hg3 mi
12:53 AM55 °FOvercast.7 mph83%29.84 "Hg10 mi
11:53 PM
Tue, Nov 24
55 °FPassing clouds.9 mph77%29.86 "Hg10 mi
10:53 PM55 °FPassing clouds.9 mph77%29.88 "Hg10 mi
9:53 PM55 °FPassing clouds.5 mph77%29.89 "Hg10 mi
9:00 PM56 °FPassing clouds.9 mph77%29.91 "Hg10 mi
7:53 PM56 °FMostly cloudy.9 mph81%29.88 "Hg10 mi
6:53 PM57 °FPassing clouds.9 mph78%29.87 "Hg10 mi
5:53 PM58 °FPassing clouds.8 mph75%29.87 "Hg10 mi
4:53 PM60 °FPassing clouds.9 mph67%29.87 "Hg10 mi
3:53 PM63 °FScattered clouds.15 mph60%29.88 "Hg10 mi
Weather by CustomWeather, © 2015

See weather overviewHow to use our weather pages